User: anonymous   Login
Location: Te Maire Creek
(41.1333°S, 175.9167°E)
Time: 12:08:37
(UTC+00:00)
Language:

Cosmos 2263 Rocket - Orbit

View from above orbital plane
View from above orbital plane
View from above satellite
View from above satellite

Ground track
Ground track

The orbit data is extracted from the following two-line orbital elements,

1 22803U 93059B   24203.38732444 -.00000078  00000-0 -14655-4 0  9999
2 22803  70.9888 188.4597 0015853  32.2107 327.9982 14.17043940595053
Epoch (UTC): 21 July 2024 09:17:44
Eccentricity: 0.0015853
inclination: 70.9888°
perigee height: 824 km
apogee height: 847 km
right ascension of ascending node: 188.4597°
argument of perigee: 32.2107°
revolutions per day: 14.17043940
mean anomaly at epoch: 327.9982°
orbit number at epoch: 59505

The dashed part of the orbit path shows where the satellite is in the earth's shadow,  

DLR